EDT,Max TemperatureF,Mean TemperatureF,Min TemperatureF,Max Dew PointF,MeanDew PointF,Min DewpointF,Max Humidity, Mean Humidity, Min Humidity, Max Sea Level PressureIn, Mean Sea Level PressureIn, Min Sea Level PressureIn, Max VisibilityMiles, Mean VisibilityMiles, Min VisibilityMiles, Max Wind SpeedMPH, Mean Wind SpeedMPH, Max Gust SpeedMPH,PrecipitationIn, CloudCover, Events, WindDirDegrees
2013-4-1,75,62,50,59,51,38,100,70,27,30.04,29.97,29.89,10,10,4,16,4,20,0.00,4,Rain,308
2013-4-2,72,57,42,45,41,35,98,60,33,30.19,30.11,30.04,10,10,10,9,2,,0.00,0,,11
2013-4-3,62,54,47,50,38,29,94,58,37,30.15,30.11,30.07,10,10,5,9,4,17,0.00,4,Rain,73
2013-4-4,49,46,43,47,45,41,96,94,91,30.10,30.01,29.96,10,8,3,12,7,22,0.00,8,Rain,84
2013-4-5,66,54,42,46,41,32,95,74,29,30.08,30.00,29.95,10,10,5,10,4,18,0.00,5,Rain,11
2013-4-6,73,53,33,48,40,33,99,64,30,30.19,30.13,30.08,10,10,7,10,2,16,0.00,0,,153
2013-4-7,76,60,43,53,48,41,91,66,39,30.20,30.13,30.06,10,10,10,14,3,24,0.00,1,,194
2013-4-8,80,64,48,57,53,48,99,69,36,30.15,30.09,30.05,10,10,0,14,3,25,0.00,3,Fog,179
2013-4-9,83,67,51,59,56,51,99,67,37,30.19,30.12,30.07,10,9,0,10,3,18,0.00,1,Fog,174
2013-4-10,84,68,51,61,57,51,99,69,40,30.12,30.05,29.94,10,9,0,14,3,21,0.00,2,Fog,179
2013-4-11,80,66,53,69,61,52,99,81,58,29.95,29.84,29.66,10,9,1,20,5,25,0.00,5,Rain-Thunderstorm,175
2013-4-12,70,62,50,65,50,40,94,65,35,29.96,29.84,29.71,10,10,10,16,10,23,0.00,3,Rain,300
2013-4-13,77,58,40,48,43,38,99,63,25,30.07,30.00,29.96,10,10,10,13,2,16,0.00,0,,342
2013-4-14,59,52,46,56,51,45,100,89,59,30.07,29.97,29.84,10,9,2,13,1,24,0.00,6,Rain,112
2013-4-15,74,66,58,63,59,56,99,85,65,30.12,30.02,29.92,10,10,5,6,1,,0.00,6,,146
2013-4-16,82,70,57,67,63,57,100,79,54,30.23,30.17,30.12,10,9,3,9,2,,0.00,4,,135
2013-4-17,84,72,61,66,64,61,98,77,51,30.23,30.16,30.09,10,10,7,9,2,,0.00,3,,168
2013-4-18,81,69,57,64,61,56,100,75,48,30.09,30.02,29.92,10,8,0,16,4,23,0.00,2,Fog,165
2013-4-19,72,58,45,68,56,43,93,87,70,30.09,29.93,29.81,10,10,7,21,10,36,0.00,6,Rain,246
2013-4-20,65,50,34,44,36,32,99,65,31,30.24,30.18,30.10,10,10,10,12,3,18,0.00,0,,357
2013-4-21,70,52,35,46,41,35,99,63,34,30.30,30.25,30.20,10,10,10,13,3,21,0.00,0,,107
2013-4-22,71,60,48,51,46,41,86,61,45,30.27,30.21,30.13,10,10,10,12,4,20,0.00,2,,95
2013-4-23,76,64,52,54,48,40,91,59,41,30.21,30.15,30.07,10,10,10,10,3,16,0.00,3,,122
2013-4-24,75,63,51,63,57,51,100,80,57,30.15,30.11,30.08,10,10,7,13,3,20,0.00,5,Rain,230
2013-4-25,72,59,45,59,42,29,91,58,21,30.32,30.24,30.15,10,10,10,12,6,20,0.00,3,Rain,352
2013-4-26,79,57,35,49,40,34,98,59,21,30.35,30.30,30.24,10,10,4,12,2,16,0.00,0,,127
2013-4-27,79,65,51,59,55,47,91,65,46,30.29,30.20,30.09,10,10,10,16,4,21,0.00,6,,153
2013-4-28,74,66,59,66,61,57,100,89,66,30.12,30.05,29.99,10,9,1,17,4,58,0.00,6,Rain-Thunderstorm,146
2013-4-29,78,68,59,62,59,56,97,79,48,30.04,29.99,29.93,10,10,10,8,2,,0.00,6,,297
2013-4-30,81,68,54,64,60,54,100,80,48,30.07,30.01,29.96,10,7,0,9,1,,0.00,4,Fog,130